الصفحة الرئيسية
METAR-TAF:

METAR-TAF

مطار :

Garrison Municipal Airport

Garrison, داكوتا الشمالية, الولايات المتحدة

دائرة عرض: 47-38-45N, خط طول: 101-26-22W, ارتفاع: 582 متر

مراقبة الطقس الحالي

تاريخ ووقت الإصدار 51 دقيقة قبل الساعة 16:52UTC
ريح 12 عقدة من الشرق/الجنوب الشرقي
درجة الحرارة -14°درجة مئوية
الرطوبة 78%
ضغط 1012 hPa

METAR: KN60 161652Z AUTO 11012KT M14/M17 A2988 RMK AO1 SLP169 T11391172

زمن: 11:43 (17:43 UTC)


TAF: مفقودة

أرصاد الطقس والتوقعات من أكثر من 4000 مطار (تقارير الطقس للمطار METAR والتنبؤ بالطقس بالمطارTAF).

المحطات المتاحة هي النقط الصفراء والحمراء على الخريطة.

حرك المؤشر فوق النقطة لمعرفة اسم المحطة.

ثم انقر لمعرفة أرصاد وتوقعات الطقس.

لتغيير الخارطة: اضغط على الأزرار الخضراء مع رمز الصليب الأسود للتكبير. على الزر الأخضر مع شرطة للتصغير، أو على الأسهم الخضراء للخرائط المجاورة.


METAR-TAF: